EHI
12 12 14 13 8 7 9 10 8 7 7 6 3 1 0 0 1 2 5 9 8 5 3 3 6 7 9 11 10 6 5 4 3 2 1 0 0 0 0 0 0 0 0
14 13 11 8 6 6 7 6 5 7 8 9 6 2 0 0 0 1 3 5 5 3 2 3 5 6 7 10 10 9 7 5 4 3 1 0 0 0 0 0 0 0 0
14 11 8 6 6 6 7 6 4 6 9 10 8 4 1 1 0 0 1 2 1 1 2 4 5 5 5 6 9 10 9 6 5 4 2 1 1 1 0 0 0 0 0
9 8 8 8 9 11 11 9 7 8 10 10 8 5 3 1 0 0 0 0 0 1 3 5 4 4 3 3 5 7 7 7 7 6 4 2 3 2 1 0 0 1 1
7 8 9 10 13 16 15 13 11 12 12 9 5 3 2 1 0 0 0 0 0 1 3 4 3 2 1 2 3 4 4 5 6 6 5 4 4 3 1 0 1 1 0
12 12 13 13 17 19 18 15 14 14 14 10 4 2 1 0 0 0 0 0 0 1 2 3 3 2 1 2 4 4 3 3 4 6 6 6 6 4 2 1 1 1 1
15 14 14 14 17 19 17 13 11 11 12 11 6 2 0 0 0 0 0 0 0 0 1 2 3 3 3 3 3 4 4 3 3 5 6 6 7 5 3 3 2 1 2
11 9 10 11 13 14 12 9 6 6 8 10 7 3 1 0 0 0 0 0 0 0 0 0 1 1 3 4 3 2 3 3 3 4 5 5 5 4 2 2 1 1 2
5 5 6 8 9 9 7 6 4 4 6 7 7 4 2 0 0 0 0 0 0 0 0 0 0 0 2 4 3 1 1 2 2 3 4 4 4 2 1 1 0 0 1
3 3 5 6 7 6 5 3 3 4 5 6 6 4 1 0 0 0 0 0 0 0 1 0 0 0 1 3 3 1 0 0 1 1 2 3 3 2 1 0 0 0 0
4 3 3 4 5 5 4 3 3 4 5 5 4 3 1 0 0 0 0 0 0 0 0 0 0 0 1 1 1 1 0 0 0 0 1 1 2 1 1 0 0 1 1
2 1 1 2 3 3 3 3 3 4 5 5 4 2 1 0 0 0 0 0 0 0 0 0 0 0 0 0 0 0 0 0 0 0 0 0 0 0 0 0 0 1 1
1 0 0 1 1 1 1 2 2 3 4 4 3 2 1 0 0 0 0 0 0 0 0 0 0 1 0 0 0 0 0 0 0 0 0 0 0 0 0 0 0 0 1
0 0 0 0 0 0 0 1 1 1 3 3 3 2 1 0 0 0 0 0 0 0 0 0 0 0 0 0 0 0 0 0 0 0 0 0 0 0 0 0 0 0 0
0 0 1 0 0 0 0 0 0 1 2 2 1 1 0 0 0 0 0 0 0 0 0 0 0 0 0 0 0 0 0 0 0 0 0 0 0 0 0 0 0 0 0
0 0 0 0 0 0 0 0 0 0 1 1 0 0 0 0 0 0 0 0 0 0 0 0 0 0 0 0 0 0 0 0 0 0 0 0 0 0 0 0 0 0 0
0 0 0 0 0 0 0 0 0 0 0 0 0 0 0 0 0 0 0 0 0 0 0 0 0 0 0 0 0 0 0 0 0 0 0 0 0 0 0 0 0 0 0
0 0 0 0 0 0 0 0 0 0 0 0 0 0 0 0 0 0 0 0 0 0 0 0 0 0 0 0 0 0 0 0 0 0 0 0 0 0 0 0 0 0 0
0 0 0 0 0 0 0 0 0 0 0 0 0 0 0 0 0 0 0 0 0 0 0 0 0 0 0 0 0 0 0 0 0 0 0 0 0 0 0 0 0 0 0
0 0 0 0 0 0 0 0 0 0 0 0 0 0 0 0 0 0 0 0 0 0 0 0 0 0 0 0 0 0 0 0 0 0 0 0 0 0 0 0 0 0 0
0 0 0 0 0 0 0 0 0 0 0 0 0 0 0 0 0 0 0 0 0 0 0 0 0 0 0 0 0 0 0 0 0 0 0 0 0 0 0 0 0 0 0
0 0 0 0 0 0 0 0 0 0 0 0 0 0 0 0 0 0 0 0 0 0 0 0 0 0 0 0 0 0 0 0 0 0 0 0 0 0 0 0 0 0 0
0 0 0 0 0 0 0 0 0 0 0 0 0 0 0 0 0 0 0 0 0 0 0 0 0 0 0 0 0 0 0 0 0 0 0 0 0 0 0 0 0 0 0
0 0 0 0 0 0 0 0 0 0 0 0 0 0 0 0 0 0 0 0 0 0 0 0 0 0 0 0 0 0 0 0 0 0 0 0 0 0 0 0 0 0 0
0 0 0 0 0 0 0 0 0 0 0 0 0 0 0 0 0 0 0 0 0 0 0 0 0 0 0 0 0 0 0 0 0 0 0 0 0 0 0 0 0 0 0
0 0 0 0 0 0 0 0 0 0 0 0 0 0 0 0 0 0 0 0 0 0 0 0 0 0 0 0 0 0 0 0 0 0 0 0 0 0 0 0 0 0 0
Wind_Speed
4 4 3 3 4 3 3 3 5 5 5 6 7 7 7 8 8 7 4 5 5 7 9 11 12 12 13 13 15 15 15 16 17 16 16 16 15 15 14 14 14 14 13
3 3 4 3 3 3 3 4 5 5 5 5 7 7 8 8 7 7 7 5 7 7 7 8 10 12 12 13 13 14 16 17 17 17 17 17 16 16 16 15 14 14 14
3 3 3 3 2 3 3 4 5 4 5 6 7 7 7 8 7 7 8 6 5 7 7 7 7 8 10 11 12 13 15 17 18 18 18 18 17 17 17 16 16 15 15
3 3 3 3 2 3 3 3 4 4 5 5 5 5 6 5 7 7 7 6 5 5 5 5 6 7 8 10 12 13 14 15 16 17 17 18 18 17 17 17 16 16 16
3 3 2 2 3 3 3 4 3 4 5 5 6 5 5 5 5 6 5 5 4 5 5 4 6 7 8 9 10 11 13 14 15 15 16 16 16 16 16 16 16 16 15
3 3 2 2 3 3 3 3 4 4 5 4 6 6 5 5 5 4 5 5 4 5 5 5 5 6 8 8 9 10 13 14 13 14 15 16 15 15 15 15 16 16 16
2 3 2 2 3 2 3 4 4 5 4 3 5 5 5 6 5 4 5 4 4 5 5 5 5 5 4 7 7 9 10 12 12 12 13 14 14 14 14 15 15 16 16
2 2 2 2 2 3 3 4 4 5 4 3 4 5 4 4 4 4 4 4 4 4 5 5 5 5 5 4 3 6 7 9 10 11 11 11 12 13 13 14 15 15 16
1 1 2 2 2 3 2 3 4 5 4 3 3 4 4 4 3 2 3 3 3 4 5 5 6 5 5 5 4 4 4 5 7 9 10 9 10 11 12 12 14 15 16
1 1 2 2 3 3 3 4 3 4 5 4 2 3 4 4 4 4 3 2 3 5 5 5 5 5 5 4 4 4 3 4 6 6 8 9 9 9 10 11 12 14 15
1 1 2 2 3 3 3 4 3 4 4 4 4 3 4 4 5 5 5 4 4 4 3 5 4 4 4 4 4 2 1 3 4 5 6 8 9 10 10 11 11 13 13
1 1 2 3 4 3 3 4 4 4 4 4 4 4 4 4 4 5 6 6 5 4 4 4 4 4 4 4 3 1 1 2 3 4 5 7 8 10 10 10 11 11 12
1 1 2 3 3 3 4 4 4 4 4 4 5 4 4 5 5 5 6 6 7 5 4 4 3 3 3 3 2 0 3 3 3 4 5 6 7 8 9 9 10 11 11
2 2 3 3 3 4 4 4 4 4 4 5 6 5 5 5 4 5 5 5 6 5 5 4 3 3 3 3 1 2 4 4 4 4 5 5 6 7 8 8 8 9 9
2 2 3 3 4 4 4 5 4 4 4 5 5 5 5 4 4 4 4 5 5 6 6 4 4 3 3 3 2 5 5 4 5 5 6 6 6 7 7 8 8 8 8
2 2 3 3 4 4 4 4 4 3 4 4 4 4 5 4 4 4 4 4 5 6 6 5 5 4 4 5 4 6 5 4 7 7 7 6 7 7 8 9 8 9 9
2 3 3 3 3 4 4 4 5 5 5 4 4 5 5 5 5 5 4 4 4 5 6 6 5 4 5 5 4 5 5 5 5 7 7 6 7 7 7 8 8 8 9
3 3 3 3 4 4 4 5 5 5 5 5 5 5 6 4 4 5 5 5 5 5 5 6 6 5 5 5 5 5 5 5 4 4 6 7 7 7 7 7 7 8 8
3 3 3 3 4 4 4 5 5 6 6 6 6 5 5 5 5 4 5 5 5 5 5 6 6 5 5 4 4 5 5 4 5 4 7 8 8 8 8 8 8 8 8
3 3 3 4 4 4 5 5 5 5 6 6 5 5 5 5 5 5 5 5 5 5 5 5 5 5 4 3 3 4 4 3 4 4 3 4 6 8 9 9 9 9 9
3 3 4 4 4 4 4 5 5 5 5 5 5 4 4 3 4 5 5 6 6 5 5 5 5 5 4 3 4 4 4 4 3 3 3 4 5 5 7 9 10 10 10
3 4 3 4 4 3 4 5 6 5 5 5 4 4 4 3 3 5 6 7 7 7 6 5 5 5 5 5 4 5 4 4 4 2 3 4 4 5 5 5 7 9 10
3 3 3 4 4 4 4 4 5 5 5 5 5 5 4 4 5 5 4 6 6 7 8 7 7 6 6 6 6 6 5 5 5 3 4 5 4 5 4 4 8 9 9
3 3 3 3 3 3 3 3 6 4 4 4 4 4 5 5 6 6 7 6 5 5 5 6 6 7 7 6 6 6 7 6 6 5 5 5 5 5 4 3 9 10 10
3 3 3 3 3 2 2 3 6 4 3 4 4 4 4 5 5 6 7 7 6 6 5 6 7 8 8 8 7 6 6 6 6 5 5 5 5 4 4 5 6 12 12
3 3 3 4 4 4 2 3 5 4 4 4 3 3 2 3 5 6 6 7 7 7 7 5 5 6 8 8 9 8 7 6 6 5 3 4 5 4 4 4 4 6 8
Wind_Direction
243 248 258 264 266 267 261 266 269 274 270 264 264 259 259 261 266 265 254 198 223 248 254 248 243 238 234 233 231 227 224 225 224 223 221 221 220 219 219 219 217 216 216
254 262 257 259 264 272 281 274 272 274 272 274 271 269 265 263 260 262 266 231 208 229 249 255 250 243 238 237 234 230 225 226 227 225 222 222 221 220 218 219 217 216 216
247 253 260 253 256 256 257 263 266 265 264 265 267 271 266 264 267 263 266 268 244 216 227 248 257 252 243 241 237 232 230 228 228 227 224 223 221 219 217 218 218 216 217
246 254 259 261 267 267 264 262 267 269 267 272 273 272 271 266 265 263 263 261 266 260 216 217 246 256 254 248 243 238 234 231 228 227 227 225 222 220 219 217 218 218 219
243 251 261 277 263 267 269 272 271 276 273 277 276 266 268 264 263 262 267 266 267 270 270 206 219 239 250 251 247 244 240 236 230 226 226 224 223 222 220 219 218 219 220
244 253 249 256 267 267 268 272 273 266 274 280 281 277 267 262 256 258 261 258 256 259 264 273 249 226 229 244 251 250 248 245 239 231 227 226 222 221 223 223 221 221 222
242 242 261 245 265 270 278 278 277 270 270 288 282 277 254 238 240 253 261 270 263 264 264 265 270 278 245 223 235 250 249 246 242 237 230 227 222 219 221 222 223 224 223
250 235 263 261 265 268 266 276 276 283 283 276 289 287 275 238 224 242 253 255 270 272 270 264 266 266 278 272 228 232 247 249 247 237 230 226 221 219 220 222 223 222 224
269 289 268 283 285 276 277 276 278 272 281 272 273 286 291 297 307 224 245 259 272 281 278 279 267 270 269 270 268 229 244 254 249 239 230 224 223 221 224 226 227 224 224
242 242 258 262 269 274 278 273 283 279 274 278 264 260 284 309 292 291 257 255 272 273 279 283 280 273 270 271 265 268 256 249 251 247 237 225 221 223 225 231 233 231 228
231 236 259 269 266 270 276 285 285 280 274 279 281 275 266 261 258 278 289 292 279 277 285 279 276 275 276 272 268 277 270 257 254 250 245 234 229 228 230 233 237 234 230
250 263 269 273 268 275 275 274 273 267 276 278 274 268 265 268 268 270 278 282 285 289 292 288 274 272 272 276 281 25 285 257 253 253 250 245 238 233 231 233 237 237 235
274 282 288 279 281 281 276 274 272 279 273 270 267 271 271 271 276 278 278 282 285 287 282 272 277 284 277 277 277 160 253 245 247 251 252 251 242 238 232 231 236 237 239
307 310 284 281 283 282 282 278 271 266 265 265 268 274 271 268 272 271 274 282 284 285 284 291 299 281 287 286 316 263 263 223 228 237 245 248 242 238 236 233 232 237 236
298 294 295 294 291 286 287 283 279 276 271 268 272 269 272 279 274 276 271 271 280 287 292 298 291 290 288 286 274 271 269 234 220 230 236 239 244 239 239 238 231 229 227
312 294 292 296 299 300 292 286 282 284 281 278 284 288 285 285 284 274 269 270 274 278 287 298 297 298 304 294 270 273 268 220 222 224 227 230 233 234 234 233 233 228 224
301 291 293 299 305 303 299 294 293 288 282 288 283 277 279 284 282 281 273 271 273 273 275 286 291 291 286 284 280 273 264 254 235 203 209 216 224 228 229 230 227 226 223
298 298 297 299 305 307 303 298 293 293 289 287 288 289 287 284 281 281 282 280 280 276 272 281 286 288 286 281 273 274 272 262 258 198 200 213 221 224 225 225 223 220 215
305 307 305 304 304 305 301 296 290 288 288 291 292 289 289 289 285 285 285 286 283 278 271 271 280 288 284 277 273 266 271 269 260 224 203 209 217 222 222 221 217 215 214
300 302 302 302 301 303 305 303 299 297 295 294 292 289 288 292 294 293 288 285 284 285 276 272 276 277 277 275 266 266 270 257 252 249 237 226 214 213 217 216 214 212 211
296 299 303 307 307 304 321 323 311 309 306 304 302 298 302 309 313 300 300 304 297 287 282 277 277 279 279 287 276 271 271 273 262 244 247 240 224 225 213 210 211 211 210
318 315 308 310 313 327 6 343 315 312 311 311 314 310 299 273 268 252 261 278 288 290 294 291 287 288 291 284 281 277 277 272 267 241 252 256 245 244 236 226 192 191 201
328 321 318 315 321 348 347 334 319 306 311 317 316 312 313 321 304 297 266 243 254 256 262 280 291 293 295 299 298 286 278 277 279 281 271 269 254 252 243 220 170 183 195
325 318 316 317 319 354 8 336 318 297 307 311 311 309 309 310 324 319 302 293 286 278 263 256 274 282 288 295 290 284 287 277 268 257 250 263 259 252 249 222 180 190 198
333 324 327 332 331 341 2 328 309 300 309 313 313 316 312 314 339 322 299 295 293 289 259 241 254 268 277 274 274 275 267 266 267 261 233 248 262 261 252 236 197 190 199
320 317 336 338 337 334 356 321 307 297 313 311 308 301 311 309 321 320 303 297 294 299 305 295 262 249 252 247 232 241 257 263 266 268 242 240 258 260 255 234 217 195 203